Dewpoint
21 34 33 33 42 39 40 38 43 45 47 48 50 50 53 55 54 55 55 54 54 53 55 55 54 53 53 52 50 49 46 49 48 48 47 48 48 48 47 47 47 48 49 50
26 34 36 40 44 41 41 39 44 48 48 48 48 50 52 52 53 55 55 54 54 54 55 54 54 53 53 51 50 49 47 48 48 48 48 49 48 48 48 47 47 48 49 50
28 32 40 39 38 37 37 38 43 44 46 47 45 45 49 51 51 52 52 52 54 54 53 54 54 52 52 51 50 49 48 48 48 48 49 49 49 48 47 48 48 49 50 50
33 36 38 39 39 39 34 40 46 44 44 40 45 36 46 50 48 50 52 52 52 54 54 55 52 50 51 50 51 49 48 48 48 48 48 46 46 45 47 47 48 48 49 50
32 34 34 34 36 39 35 39 45 44 43 41 40 37 41 49 46 48 49 50 51 52 54 54 52 50 50 49 50 49 49 48 48 48 48 48 47 47 48 48 47 47 48 49
36 41 40 40 40 40 42 41 37 39 38 33 38 37 36 43 46 48 51 50 52 51 53 53 51 48 48 50 49 48 48 47 46 47 48 48 47 47 47 47 47 48 48 49
35 37 44 43 36 35 30 28 24 24 33 33 39 33 37 43 47 48 49 51 51 50 53 52 51 46 47 49 48 48 48 45 46 46 47 48 49 49 47 47 47 47 47 47
32 32 38 37 37 37 33 27 24 21 31 34 38 35 37 44 48 49 50 50 51 50 50 50 48 43 45 47 47 47 45 45 45 45 47 48 49 49 49 48 48 47 47 48
33 34 38 37 36 36 35 34 34 36 36 33 37 40 42 45 46 48 48 48 48 49 50 49 44 43 43 46 44 45 44 45 44 44 47 47 49 48 48 48 48 48 48 49
37 33 38 38 37 36 35 38 28 32 29 29 35 35 35 36 41 46 47 48 48 49 50 46 43 43 45 44 44 44 44 45 45 45 47 49 49 49 49 49 48 48 48 48
35 36 37 38 36 35 34 33 38 36 35 31 32 35 39 35 40 44 46 46 48 49 48 46 44 43 43 43 44 44 45 45 44 45 46 48 48 49 49 49 49 49 47 46
38 38 34 35 38 37 34 34 37 33 32 35 32 31 37 33 34 40 42 43 47 48 47 46 44 42 43 43 44 45 45 45 45 46 48 49 48 48 48 49 50 49 49 47
41 38 35 37 32 34 29 30 37 35 35 33 30 31 35 35 34 35 35 36 38 41 41 41 41 41 43 43 43 44 44 44 45 46 48 49 51 48 47 48 50 50 50 49
44 38 37 32 31 33 28 31 33 32 29 31 31 35 38 39 36 37 38 38 39 40 39 40 40 41 41 43 43 44 44 44 45 45 47 48 50 50 48 48 49 50 50 50
37 34 35 34 30 30 33 35 34 30 30 30 34 38 39 42 44 47 48 47 44 43 45 45 41 42 41 42 43 44 44 44 45 47 48 47 48 50 49 49 48 52 50 49
41 35 36 32 34 37 38 39 41 41 40 37 39 40 43 46 47 48 47 47 48 47 47 49 50 46 44 45 44 44 44 45 46 47 47 48 50 49 50 49 47 48 49 49
41 42 39 36 38 36 36 40 42 43 44 42 39 44 47 46 47 48 48 47 46 48 49 50 49 47 48 48 46 45 44 45 46 47 48 48 49 49 48 48 48 47 48 47
43 42 40 37 34 29 41 43 43 41 43 41 38 41 43 46 48 47 48 48 47 47 48 49 50 51 51 51 52 52 49 46 47 46 48 49 49 49 49 48 47 46 47 47
44 42 40 36 33 39 41 42 42 40 35 40 40 42 40 42 37 38 43 46 46 46 47 48 49 50 51 52 52 51 50 48 47 47 48 48 49 48 47 48 48 48 47 46
43 45 41 38 33 33 39 40 40 43 36 41 40 41 41 36 30 36 41 46 45 45 46 47 48 49 49 49 52 52 52 52 48 47 47 49 50 50 49 47 50 50 49 48
40 41 39 37 37 40 38 40 40 31 32 39 39 41 38 34 38 39 44 41 43 46 46 46 47 47 47 49 50 51 50 49 49 48 48 50 50 49 49 47 46 51 50 51
38 37 37 37 34 33 39 37 33 38 38 36 37 39 39 39 40 39 40 40 42 44 45 45 45 46 47 49 51 50 51 52 52 51 51 50 49 50 50 50 48 49 48 50
37 40 39 37 36 40 40 35 39 38 31 31 35 35 40 38 35 38 40 40 41 43 44 44 44 45 47 48 49 49 50 53 52 52 52 51 51 50 51 49 47 49 49 47
44 42 38 38 40 40 37 37 35 34 32 32 34 35 35 37 37 39 40 40 41 41 42 44 44 44 45 47 48 48 50 52 52 53 53 52 52 51 52 50 51 50 49 46
43 43 41 39 41 41 39 37 34 34 35 37 38 38 39 40 39 39 40 40 42 42 42 43 44 44 45 47 48 48 50 50 49 50 51 51 52 52 49 49 50 50 49 48
42 42 38 37 40 38 35 37 37 35 38 38 38 38 39 39 40 40 41 41 42 43 44 44 44 45 46 47 47 48 48 49 48 46 48 49 50 51 51 49 51 48 46 45
Lifted_Index
1 0 -1 -1 -1 -1 -1 -1 -1 -1 -1 -1 -1 -1 -1 -1 -1 -0 1 1 1 0 -0 -1 -1 0 2 3 4 5 6 6 7 8 8 7 7 7 7 7 7 6 6 6
1 0 -1 -1 -1 -1 -1 -1 -1 -1 -1 -1 -1 -1 -1 -0 -0 0 1 1 1 0 -1 -1 -0 0 2 3 4 5 5 6 7 7 7 6 6 6 6 6 6 6 6 6
1 0 -1 -1 -1 -1 -1 -1 -1 -1 -1 -1 -1 -0 -0 0 0 0 1 1 1 -0 -1 -1 -0 0 2 3 3 4 5 6 6 6 6 6 6 6 6 6 6 6 5 5
0 -0 -0 -0 -0 0 -0 -0 -1 -1 -1 -1 -0 0 0 0 0 0 1 1 1 0 -0 -1 -0 0 1 2 3 4 4 5 6 6 5 5 5 5 5 5 5 5 5 5
-0 -0 -1 -0 0 0 0 -0 -1 -1 -1 -0 0 1 1 1 0 0 -0 0 0 0 -0 -1 -0 0 1 2 3 4 4 5 5 5 5 5 4 5 5 5 5 5 5 4
-0 -1 -1 -1 -0 1 1 -0 -0 -0 0 0 1 1 1 1 0 -1 -1 -1 -0 -0 -1 -1 -1 0 1 2 3 4 4 5 5 5 5 4 4 4 4 5 5 5 4 4
-1 -1 -0 -0 0 1 1 1 1 1 1 1 1 2 1 1 -0 -1 -1 -1 -1 -1 -1 -1 -1 0 1 2 3 4 4 5 5 5 4 4 4 4 4 4 5 4 4 3
-0 -0 0 1 1 2 2 2 1 1 1 1 1 2 1 1 -0 -1 -1 -1 -1 -1 -1 -1 -0 0 1 2 3 4 5 5 5 5 4 4 3 3 4 4 4 4 4 3
0 1 2 2 2 2 2 2 2 1 1 1 2 2 1 1 0 -1 -1 -0 -0 -0 -0 -0 0 1 1 2 3 4 5 5 5 5 4 3 3 3 4 4 4 4 4 3
2 2 3 3 3 3 3 2 2 2 1 1 2 2 2 2 1 0 -0 0 0 -0 -0 -0 0 1 2 2 3 4 5 5 5 4 4 4 4 4 4 4 4 4 4 4
3 3 3 3 4 3 3 3 2 2 2 1 2 2 2 2 2 1 1 1 0 -0 -0 -0 0 1 2 3 3 4 5 5 5 4 4 4 4 4 4 4 4 4 4 4
3 3 3 4 4 4 3 3 3 2 2 2 2 2 3 3 3 2 2 1 1 0 -0 0 0 1 2 3 3 4 4 5 5 4 4 4 4 4 4 4 4 4 4 4
3 3 3 3 4 4 4 3 3 3 2 2 2 3 3 3 3 3 2 2 1 1 1 1 1 2 2 2 3 4 4 5 4 4 4 3 4 4 4 4 3 3 3 3
4 4 3 3 4 4 4 4 3 3 3 3 3 3 3 3 2 2 2 2 1 1 1 2 2 2 2 2 3 3 4 4 4 4 3 3 3 3 3 3 3 3 3 3
4 4 3 3 4 4 3 4 4 3 3 3 3 2 2 2 2 2 2 1 1 1 1 1 1 1 1 2 2 3 3 4 4 4 3 3 3 3 3 3 3 3 3 3
3 3 3 3 3 3 3 3 3 3 3 2 2 2 1 1 1 1 1 1 1 1 0 0 0 1 1 1 2 2 3 3 4 4 3 3 3 3 3 3 3 3 3 3
2 2 2 2 2 2 2 2 2 2 2 2 1 1 1 1 1 1 1 1 1 1 1 0 -0 -0 0 1 1 2 3 3 3 4 3 3 3 3 3 3 3 3 3 3
1 1 1 1 1 1 2 2 2 2 2 1 1 1 1 1 1 2 2 2 2 2 1 0 -0 -0 -0 0 1 1 2 2 3 3 3 3 3 3 3 3 3 3 3 3
0 0 1 1 1 1 1 1 2 2 1 2 2 2 3 3 3 4 3 3 3 3 2 1 1 0 0 -0 -0 0 1 1 2 3 3 3 3 3 3 3 3 3 3 3
0 0 0 0 0 0 1 1 2 2 2 2 3 3 4 4 5 5 4 3 3 3 2 2 2 1 1 0 -0 -0 -0 1 1 2 3 3 2 2 2 3 3 3 2 2
1 1 0 0 0 1 1 2 3 3 3 4 4 4 4 5 5 4 4 3 3 3 3 2 2 2 1 1 0 -0 -0 0 1 1 2 2 2 2 2 2 3 3 3 2
1 1 1 1 1 2 2 3 4 5 5 5 5 4 4 4 4 4 4 4 4 3 3 3 3 2 2 1 1 1 1 0 0 1 1 2 2 2 2 2 2 3 3 3
2 2 2 2 3 3 4 5 5 6 6 5 4 4 4 4 4 4 4 4 4 4 4 3 3 3 2 2 2 2 2 1 1 0 1 1 1 1 2 2 2 2 3 3
2 2 2 3 3 4 5 5 5 5 5 4 4 4 4 4 4 4 3 3 4 4 3 3 3 3 3 2 2 3 2 2 1 1 1 2 2 2 2 2 2 2 2 2
2 2 3 3 4 4 5 5 5 5 4 4 4 4 4 4 3 3 3 3 3 3 3 3 3 3 3 3 2 3 3 2 2 2 2 3 3 2 2 2 2 2 2 2
2 2 3 3 4 5 5 5 5 4 4 3 3 3 3 4 3 3 3 3 3 3 3 3 3 3 3 3 2 3 3 3 2 3 3 3 3 3 2 2 2 2 2 2